This is the latest recevied weather packets stored in our database for station/object KC4GS-13. If no packets are shown the sender has not sent any weather packets the latest 10 day(s).
| Time | Temp. | Humidity | Pressure | Rain* | Wind** | Luminosity | Snow |
|---|---|---|---|---|---|---|---|
| 1787861714 | 25° C | 95% | 1015.3 hPa | 0 mm | - | 436 W/m² | - |
| 1787861411 | 24.44° C | 95% | 1015.8 hPa | 0 mm | - | 598 W/m² | - |
| 1787861106 | 24.44° C | 96% | 1015.8 hPa | 0 mm | - | 507 W/m² | - |
| 1787860805 | 24.44° C | 97% | 1016.2 hPa | 0 mm | - | 237 W/m² | - |
| 1787860500 | 23.89° C | 96% | 1015.8 hPa | 0 mm | - | 190 W/m² | - |
| 1787860194 | 23.89° C | 97% | 1016.2 hPa | 0 mm | - | 173 W/m² | - |
| 1787859890 | 23.89° C | 96% | 1016 hPa | 0 mm | - | 138 W/m² | - |
| 1787859585 | 23.89° C | 97% | 1016.3 hPa | 0 mm | - | 120 W/m² | - |
| 1787859279 | 23.89° C | 97% | 1016.5 hPa | 0 mm | - | 127 W/m² | - |
| 1787858976 | 23.89° C | 96% | 1016.7 hPa | 0 mm | - | 109 W/m² | - |
| 1787858672 | 23.33° C | 96% | 1016.8 hPa | 0 mm | - | 109 W/m² | - |
| 1787858367 | 23.33° C | 96% | 1017 hPa | 0 mm | - | 120 W/m² | - |
| 1787858062 | 23.33° C | 96% | 1017 hPa | 0 mm | - | 138 W/m² | - |
| 1787857756 | 23.33° C | 96% | 1016.9 hPa | 0 mm | - | 161 W/m² | - |
| 1787857453 | 22.78° C | 96% | 1017.1 hPa | 0 mm | - | 133 W/m² | - |
| 1787857145 | 23.33° C | 95% | 1017 hPa | 0 mm | - | 60 W/m² | - |
| 1787856840 | 23.33° C | 95% | 1016.9 hPa | 0 mm | - | 95 W/m² | - |
| 1787856539 | 23.33° C | 95% | 1016.7 hPa | 1.78 mm | - | 88 W/m² | - |
| 1787856234 | 22.78° C | 95% | 1016.8 hPa | 1.78 mm | - | 82 W/m² | - |
| 1787855929 | 22.78° C | 94% | 1016.5 hPa | 0 mm | - | 69 W/m² | - |
| 1787855624 | 22.78° C | 94% | 1016.6 hPa | 0 mm | - | 69 W/m² | - |
| 1787855319 | 22.78° C | 93% | 1016.5 hPa | 0 mm | - | 69 W/m² | - |
| 1787855015 | 23.33° C | 93% | 1016.5 hPa | 0 mm | - | 65 W/m² | - |
| 1787854710 | 23.33° C | 92% | 1016.3 hPa | 0 mm | - | 59 W/m² | - |
| 1787854409 | 23.33° C | 90% | 1016.3 hPa | 1.27 mm | - | 55 W/m² | - |
* Rain latest hour (hover to see other rain measurements)
** Current wind speed in m/s (hover to see current wind gust speed)